Location: Unspecified
(44.4377°N, 88.0525°W)
Time: 16:18:22
(UTC-05:00)

CZ-3 Stage 3 - Visible Passes

Search period start: 01 April 2015 00:00
Search period end: 11 April 2015 00:00
Orbit: 423 x 34806 km, 31.0° (Epoch: 30 March)

Date Brightness Start Highest point End Pass type
(mag) Time Alt. Az. Time Alt. Az. Time Alt. Az.
01 Apr 7.2 15:12:20 10° WSW 23:50:57 23° WSW 00:11:57 10° SW visible
02 Apr 7.0 11:23:36 10° SSW 19:47:07 65° SSW 20:44:39 10° SE visible
04 Apr 7.2 15:07:41 10° WSW 23:45:03 21° WSW 00:05:50 10° SW visible
05 Apr 7.0 11:18:15 10° SSW 19:42:15 64° SSW 20:39:36 10° SE visible
07 Apr 7.2 15:02:59 10° WSW 23:39:03 20° WSW 23:59:29 10° SW visible
08 Apr 7.0 11:12:53 10° SSW 19:37:12 63° SW 20:34:28 10° SSE visible
